www.pogodaiklimat.ru

Погода и климат >> Архив погоды >> Россия >> Краснодарский край >> Тихорецк


ПОГОДА в Тихорецке

  • Прогноз погоды в Тихорецке
  • Монитор погоды в Тихорецке

АРХИВ ПОГОДЫ в Тихорецке

Время (UTC), дата Ветер
(напр.,м/с)
 
Видим.   Явления Облачность Т
(С)
Тd
(С)
f
(%)
Тe
(С)
Тes
(С)
Комфортность P
(гПа)
Po
(гПа)
Тmin
(С)
Tmax
(С)
R
(мм)
R24
(мм)
S
(см)
09 17.03 ЮВ 2 10 км слаб. ливневой дождь 10/10 600 м
[Cb cap]
+8.1 +4.0 75 +6 +6 1010.7 1001.2
12 17.03 ЮВ 3 10 км слаб. ливневой дождь 10/10 600 м
[Cb cap]
+8.2 +3.3 71 +6 +6 1011.6 1002.1
15 17.03 ЮВ 2 10 км {ливн. осадки} 10/8 1000 м
[Cb cap As trans]
+8.1 +3.4 72 +6 +6 1012.8 1003.3 +8.5 0.0
18 17.03 Ю 2 10 км в посл. час ливневой дождь 10/10 600 м
[Cb cap]
+5.1 +3.8 91 +2 +2 1015.3 1005.7
21 17.03 ЮЗ 4 10 км 10/10
[Cb cap]
+5.0 +3.6 91 +1 +1 1016.4 1006.7
00 18.03 ЮЗ 2 10 км 10/10 600 м
[Sc]
+5.0 +3.6 91 +2 +2 1018.1 1008.4
03 18.03 З 2 10 км {ливн. осадки} 10/10 600 м
[Cb cap]
+4.6 +3.5 93 +2 +2 1019.8 1010.1 +4.6 0.8
06 18.03 З 2 10 км {ливн. осадки} 10/10 600 м
[Cb cap]
+5.5 +3.9 89 +3 +3 1022.1 1012.4
09 18.03 ЮЗ 2 10 км 10/10 600 м
[Cb cap]
+6.7 +4.3 85 +4 +4 1023.1 1013.4
12 18.03 С 1 10 км слаб. ливневой дождь 10/10 600 м
[Cb cap]
+7.1 +4.9 86 +6 +6 1023.9 1014.2
15 18.03 штиль 0 10 км {ливн. осадки} 3/3 1000 м
[Cu med, cong]
+8.4 +2.5 66 +8 +8 1024.2 1014.6 +9.2 2
18 18.03 штиль 0 10 км {ливн. осадки} ясно +3.8 +2.7 93 +3 +3 1025.5 1015.7
21 18.03 штиль 0 10 км ясно +3.8 +2.1 89 +3 +3 1026.1 1016.3
00 19.03 В 1 10 км ясно +3.4 +1.5 87 +2 +2 1025.7 1015.9
03 19.03 СВ 2 10 км ясно +2.6 +1.0 89 -1 -1 1026.1 1016.3 +2.5
06 19.03 СВ 2 10 км ясно +5.0 +2.2 82 +2 +7 1026.6 1016.9 +2.0
09 19.03 СВ 4 10 км 8/8 600 м
[Sc]
+9.1 +4.9 75 +6 +8 1026.3 1016.6
12 19.03 СВ 5
{10}
10 км 8/8 300 м
[St]
+8.2 +3.9 74 +5 +5 1025.7 1016.1
15 19.03 СВ 5 10 км 8/8 600 м
[Sc]
+6.7 +3.0 77 +3 +3 1025.4 1015.7 +9.6
18 19.03 СВ 3 10 км ясно +5.0 +2.2 82 +2 +2 1026.0 1016.2
21 19.03 СВ 3 10 км ясно +3.6 +1.3 85 -0 -0 1025.3 1015.5
00 20.03 СВ 3 10 км ясно +2.1 +0.3 88 -2 -2 1024.8 1015.0
03 20.03 СВ 2 10 км ясно +1.7 -0.9 83 -2 -2 1024.4 1014.5 +1.7
06 20.03 В 3 10 км ясно +5.7 +0.1 67 +3 +7 1024.7 1015.0 +1.4
09 20.03 СВ 4
{10}
10 км ясно +11.7 +0.7 47 +10 +17 1023.5 1014.0
12 20.03 СВ 4
{10}
10 км ясно +13.4 +1.5 44 +12 +16 1022.4 1012.9
15 20.03 СВ 4 10 км ясно +11.7 +2.0 51 +10 +10 1022.1 1012.6 +13.6
18 20.03 СВ 3 10 км ясно +7.8 +1.6 65 +5 +5 1023.2 1013.6
21 20.03 СВ 2 10 км ясно +5.4 +0.9 73 +3 +3 1022.9 1013.2
00 21.03 СВ 1 10 км ясно +3.4 +0.2 80 +2 +2 1022.7 1012.9
03 21.03 штиль 0 10 км ясно +0.1 -1.1 92 -1 -1 1023.1 1013.2 0.0
06 21.03 Ю 1 1000 м ясно +6.8 +1.5 69 +6 +12 1023.6 1013.9 -0.2
09 21.03 З 2 10 км 1/1 600 м
[Cu hum]
+13.4 +2.4 47 +13 +23 1023.0 1013.6
12 21.03 З 3 10 км 8/8 600 м
[Cb cap]
+13.5 +2.6 48 +13 +14 1021.9 1012.5
15 21.03 З 3 10 км 10/10 600 м
[Cb cap]
+11.4 +2.4 54 +10 +10 1022.3 1012.8 +14.3
18 21.03 З 2 10 км 10/10 600 м
[Sc diur, vesp]
+8.2 +3.3 71 +6 +6 1024.3 1014.7
21 21.03 ЮЗ 2 10 км ясно +5.0 +2.1 81 +2 +2 1024.2 1014.5
00 22.03 З 2 10 км ясно +4.9 +0.2 72 +3 +3 1023.7 1013.9
03 22.03 ЮЗ 2 10 км 9/9 600 м
[Sc]
+4.2 -0.2 73 +2 +2 1022.9 1013.1 +4.2
06 22.03 СЗ 2 10 км ясно +6.3 0.0 64 +4 +9 1023.5 1013.8 +3.7
09 22.03 З 4 10 км 8/8 300 м
[Cb cap]
+7.9 -1.5 51 +5 +7 1023.0 1013.3
12 22.03 З 4
{10}
10 км 4/3 600 м
[Cu med, cong Ac cast]
+9.6 -3.9 38 +7 +10 1021.4 1011.8
15 22.03 З 4 10 км 10/0
[Ac As]
+7.9 -3.1 46 +5 +5 1020.0 1010.4 +10.1
18 22.03 ЮЗ 3 10 км 10/0
[Ac As]
+6.1 -2.8 53 +3 +3 1019.2 1009.6
21 22.03 ЮЗ 4 10 км 10/0
[]
+6.7 -0.6 60 +3 +3 1015.1 1005.5
00 23.03 З 5-13
{15}
н/о н/о +5.2 +3.0 86 +1 +1 1013.5 1003.9
03 23.03 З 3
{13}
10 км {ливн. осадки} 10/8 600 м
[Cb cap Ac As]
+3.8 +2.1 89 -0 -0 1013.8 1004.1 +3.4 5
06 23.03 З 3 10 км {ливн. осадки} 10/8 600 м
[Cb cap Ac trans Ci fib]
+3.7 -0.5 74 0 +1 1015.0 1005.3 +2.9
09 23.03 З 2 10 км 10/8 600 м
[Cb cap Ac As]
+7.2 -3.7 46 +6 +6 1013.8 1004.3
12 23.03 ЮЗ 3
{11}
10 км {ливн. осадки} 8/6 600 м
[Cb cap Ci fib]
+6.3 -0.7 61 +4 +6 1013.8 1004.2
15 23.03 З 4 10 км в посл. час крупа {ливн. осадки} 8/8 600 м
[Cb cap]
+1.6 -0.6 85 -3 -3 1015.1 1005.3 +8.5 0.0
18 23.03 ЮЗ 1 10 км {ливн. осадки} ясно +1.3 -0.4 88 -1 -1 1015.6 1005.8
21 23.03 ЮЗ 1 10 км ясно -0.3 -2.0 88 -2 -2 1015.8 1006.0
00 24.03 ЮЗ 2 10 км слаб. ливневой снег 10/10 600 м
[Cb cap]
0.0 -1.1 92 -4 -4 1015.6 1005.8
03 24.03 ЮЗ 2 4000 м слаб. ливневой снег 10/10 600 м
[Cb cap]
+0.2 -0.5 95 -4 -4 1015.9 1006.1 -1.3 1 1
06 24.03 З 3 10 км {ливн. осадки} 8/8 600 м
[St]
+1.8 +0.4 90 -3 -2 1017.2 1007.4

 

Местоположение метеостанции Тихорецк (Краснодарский край, Россия): широта 45.85 долгота 40.08 высота над уровнем моря 78 м.

В архиве по умолчанию представлена погода в Тихорецке за последнюю неделю. Архивные данные за месяц целиком и за предыдущие месяцы, начиная с января 2011 года, Вы можете получить, выбрав интересующий диапазон дат из раскрывающегося списка и нажав кнопку "Ввод!".


*Определитесь, кто Вы:
робот инопланетянин человек

Внимание! Время в таблицах - всемирное. Для получения местного времени необходимо прибавить поправку, которая равна 3 ч.

Смотрите также архив погоды в соседних городах и на ближайших метеорологических станциях:

Погода в Сосыке (Краснодарский край, Россия) (37 км)
Погода в Кропоткине (Краснодарский край, Россия) (60 км)
Погода в Кореновске (Краснодарский край, Россия) (63 км)
Погода в Белой Глине (Краснодарский край, Россия) (67 км)
Погода в Усть-Лабинске (Краснодарский край, Россия) (74 км)
Погода в Кущевской (Краснодарский край, Россия) (84 км)
Погода в Каневской (Краснодарский край, Россия) (89 км)
Погода в Тимашевске (Краснодарский край, Россия) (93 км)
Погода в Новоалександровске (Ставропольский край, Россия) (95 км)
Погода в Красногвардейском (Ставропольский край, Россия) (109 км)

Пояснения к столбцам:

Ветер - указаны скорость ветра в м/с - средняя за 10 мин, порывы в срок и между сроками (в фигурных скобках) и направление, откуда дует ветер: С - северный, СВ - северо-восточный, В - восточный, ЮВ - юго-восточный, Ю - южный, ЮЗ - юго-западный, З - западный, СЗ - северо-западный.
Видимость - горизонтальная дальность видимости в метрах или километрах. При видимости от 1 до 10 км при отсутствии осадков обычно наблюдается дымка, при ухудшении видимости до 1 км и менее - туман. В сухую погоду видимость может ухудшаться дымом, пылью или мглою.
Явления - указаны атмосферные явления, наблюдавшиеся в срок или в последний час перед сроком; фигурными скобками обозначены явления, наблюдавшиеся между сроками (за 1-3 часа до срока); квадратными скобками обозначены град или гололедные отложения с указанием их диаметра в мм.
Облачность - указаны через наклонную черту общая и нижняя облачность в баллах и высота нижней границы облаков в метрах; квадратными скобками обозначены формы облаков: Ci - перистые, Cs - перисто-слоистые, Cc - перисто-кучевые, Ac - высококучевые, As - высокослоистые, Sc - слоисто-кучевые, Ns - слоисто-дождевые, Cu - кучевые, Cb - кучево-дождевые. Подробнее классификацию облаков см. в Атласе облаков (PDF).
T - Температура воздуха - температура, измеренная на высоте 2 м над землей.
Td - Температура точки росы - температура, при понижении до которой содержащийся в воздухе водяной пар достигнет насыщения.
f - Относительная влажность воздуха - влажноcть воздуха, измеренная на высоте 2 м над землей.
Te - Эффективная температура - температура, которую ощущает одетый по сезону человек в тени. Характеристика душности погоды. При расчете учитывается влияние влажности воздуха и скорости ветра на теплоощущения человека.
Tes - Эффективная температура на солнце - температура, которую ощущает человек, с поправкой на солнечный нагрев. Характеристика знойности погоды. Зависит от высоты солнца над горизонтом, облачности и скорости ветра. Ночью, в пасмурную погоду, а также при ветре 12 м/с и более поправка равна нулю.
P - Атмосферное давление - приведенное к уровню моря атмосферное давление.
Po - Атмосферное давление - измеренное на уровне метеостанции атмосферное давление.
Tmin - Минимальная температура - минимум температуры воздуха на высоте 2 м над землей.
Tmax - Максимальная температура - максимум температуры воздуха на высоте 2 м над землей.
R - Количество осадков - Количество выпавших осадков за период времени, мм. При наведении курсора мыши на число - период времени, за который выпало указанное количество осадков.
R24 - Количество осадков - Количество выпавших осадков за 24 часа, мм.
S - Снежный покров - Высота снежного покрова, см. При наведении курсора мыши на число - состояние снежного покрова и степень покрытия местности в баллах.